Hourly Data Report for October 05, 2017

All times are specified in Local Standard Time (LST). Add 1 hour to adjust for Daylight Saving Time where and when it is observed.

SAULT STE MARIE A
ONTARIO

46°29'06.000" N
84°30'35.000" W
192.00 m
6057591
71260
YAM

Download Data

Hourly Data (October 2017)
Hourly Data Report for October 5, 2017
Temp Definition
°C
Dew Point Temp Definition
°C
Rel Hum Definition
%
Wind Dir Definition
10's deg

Wind Spd Definition
km/h
Visibility Definition
km
Stn Press Definition
kPa
Hmdx Definition


Wind Chill Definition


Weather Definition


TIME
00:00 Legend Double Dagger 12.2 8.8 79 28 21 24.1 99.71     LegendNANA
01:00 Legend Double Dagger 12.4 8.4 76 29 22 24.1 99.70     Mainly Clear
02:00 Legend Double Dagger 11.3 9.3 87 24 14 24.1 99.65     LegendNANA
03:00 Legend Double Dagger 10.3 8.0 86 24 13 24.1 99.62     LegendNANA
04:00 Legend Double Dagger 10.4 7.7 83 25 21 24.1 99.62     Mainly Clear
05:00 Legend Double Dagger 10.0 7.2 83 25 23 24.1 99.58     LegendNANA
06:00 Legend Double Dagger 9.7 7.2 84 26 16 24.1 99.58     LegendNANA
07:00 Legend Double Dagger 9.6 7.2 85 25 19 24.1 99.58     Mainly Clear
08:00 Legend Double Dagger 10.8 7.8 82 26 16 24.1 99.56     LegendNANA
09:00 Legend Double Dagger 12.6 7.0 68 26 20 24.1 99.55     LegendNANA
10:00 Legend Double Dagger 14.6 6.7 59 26 26 24.1 99.52     Mostly Cloudy
11:00 Legend Double Dagger 15.2 6.1 54 26 26 24.1 99.47     LegendNANA
12:00 Legend Double Dagger 14.9 6.8 58 25 23 24.1 99.47     LegendNANA
13:00 Legend Double Dagger 15.8 6.9 55 28 25 24.1 99.45     Mostly Cloudy
14:00 Legend Double Dagger 15.5 7.4 58 29 21 24.1 99.41     LegendNANA
15:00 Legend Double Dagger 15.9 7.8 58 29 22 24.1 99.40     LegendNANA
16:00 Legend Double Dagger 15.2 6.5 56 29 29 24.1 99.40     Mainly Clear
17:00 Legend Double Dagger 14.5 6.8 60 31 27 24.1 99.40     LegendNANA
18:00 Legend Double Dagger 13.0 7.1 67 30 16 24.1 99.39     LegendNANA
19:00 Legend Double Dagger 12.5 7.7 73 29 11 24.1 99.43     Mostly Cloudy
20:00 Legend Double Dagger 13.1 8.6 74 29 18 24.1 99.43     LegendNANA
21:00 Legend Double Dagger 12.7 8.2 74 32 16 24.1 99.46     LegendNANA
22:00 Legend Double Dagger 11.7 7.4 75 32 12 24.1 99.46     Mainly Clear
23:00 Legend Double Dagger 9.5 7.0 84 36 3 24.1 99.46     LegendNANA

Notes on Data Quality.

Legend

  • E = Estimated
  • M = Missing
  • NA = Not Available
  • ‡ = Partner data that is not subject to review by the National Climate Archives
Date modified: